#timestamp,LO_Frequency,Hit,StdDev 
1663412415.5,286047002.0,N
1663412435.4,286047002.6,N
1663412455.2,286047002.5,N
1663412475.0,286047004.3,N
1663412475.9,286047004.3,N
1663412495.8,286047001.4,N
1663412515.6,286047004.1,Y
1663412535.5,286047002.2,P
1663412555.3,286047002.2,P
1663412575.1,286047001.8,P
1663412595.9,286046999.9,N
1663412615.7,286046998.7,N
1663412635.5,286046998.6,N
1663412655.4,286047002.8,N
1663412675.2,286046998.5,N
1663412695.1,286046998.5,N
1663412696.0,286046998.5,N
1663412715.8,286047000.7,N
1663412735.6,286046998.9,N
1663412755.5,286046998.1,N
1663412775.3,286046998.4,N
1663412795.2,286046999.0,N
1663412815.9,286046999.1,N
1663412835.7,286046996.9,N
1663412855.6,286046999.5,N
1663412875.4,286046999.5,N
1663412895.2,286046999.0,N
1663412915.1,286047000.9,N
1663412916.0,286047000.9,N
1663412935.8,286047000.8,N
1663412955.7,286046998.3,N
1663412975.5,286047000.5,N
1663412995.3,286047002.4,N
1663413015.2,286046999.9,N
1663413035.0,286047001.9,N
1663413035.9,286047001.9,N
1663413055.8,286047003.7,N
1663413075.6,286047001.6,N
1663413095.4,286047000.0,N
1663413115.3,286047001.0,N
1663413135.1,286046997.4,N
1663413155.9,286046996.9,N
1663413175.7,286046997.0,N
1663413195.5,286046997.1,N
1663413215.4,286046999.0,N
1663413235.2,286046998.8,N
1663413255.0,286046999.4,N
1663413255.9,286046999.4,N
1663413275.8,286047000.5,N
1663413295.6,286047000.6,N
1663413315.5,286047000.4,N
1663413335.3,286046999.8,N
1663413355.1,286047003.3,N
1663413375.9,286047001.1,N
1663413395.7,286046998.9,N
1663413415.6,286046996.6,N
1663413435.4,286047000.9,N
1663413455.2,286047000.5,N
1663413475.1,286047001.0,N
1663413476.0,286047001.0,N
1663413495.8,286047000.7,N
1663413515.7,286047001.2,N
1663413535.5,286046999.4,N
1663413555.3,286046998.6,N
1663413575.2,286047001.0,N
1663413595.0,286046999.1,N
1663413595.9,286046999.1,N
1663413615.7,286046996.7,N
1663413635.6,286046995.5,N
1663413655.4,286046997.6,N
1663413675.3,286046999.1,N
1663413695.1,286047000.5,N
1663413715.8,286046998.3,N
1663413735.7,286046999.7,N
1663413755.5,286047002.1,N
1663413775.4,286047001.8,N
1663413795.2,286047003.7,N
1663413815.0,286047003.2,N
1663413815.9,286047003.2,N
1663413835.8,286047004.7,N
1663413855.6,286047004.7,N
1663413875.5,286047007.6,Y
1663413895.3,286047001.3,P
1663413915.1,286046999.9,N
1663413935.9,286047000.3,N
1663413955.7,286047001.3,N
1663413975.5,286047001.6,N
1663413995.4,286047002.4,Y
1663414015.2,286046998.6,P
1663414035.1,286046999.7,N
1663414036.0,286046999.7,N
1663414055.8,286047000.5,N
1663414075.6,286047002.8,Y
1663414095.5,286047002.7,P
1663414115.3,286047000.1,N
1663414135.1,286047002.8,N
1663414155.9,286046999.9,N
1663414175.7,286047000.9,N
1663414195.6,286047000.5,N
1663414215.4,286046998.9,N
1663414235.2,286047000.6,N
1663414255.1,286047002.6,N
1663414256.0,286047002.6,N
1663414275.8,286047004.2,Y
1663414295.7,286047001.5,P
1663414315.5,286047001.7,P
1663414335.3,286047003.8,P
1663414355.2,286047003.0,N
1663414375.9,286047003.8,Y
1663414395.7,286047002.8,P
1663414415.6,286046999.9,N
1663414435.4,286047000.0,N
1663414455.3,286047002.1,N
1663414475.1,286047003.7,Y
1663414476.0,286047003.7,P
1663414495.8,286047002.4,N
1663414515.7,286047002.0,N
1663414535.5,286047002.5,N
1663414555.4,286047002.3,Y
1663414575.2,286046999.1,P
1663414595.0,286046998.3,N
1663414595.9,286046998.3,N
1663414615.8,286046998.6,N
1663414635.6,286046998.8,N
1663414655.4,286046998.8,N
1663414675.3,286046998.6,N
1663414695.1,286046996.8,N
1663414715.9,286046996.6,N
1663414735.7,286046997.5,N
1663414755.5,286046996.9,N
1663414775.4,286046996.8,N
1663414795.2,286046996.8,N
1663414815.0,286046994.9,Y
1663414815.9,286046994.9,P
1663414835.8,286046997.2,N
1663414855.6,286046995.6,P
1663414875.5,286046995.6,Y
1663414895.3,286046999.6,P
1663414915.1,286046999.5,N
1663414935.9,286046997.4,N
1663414955.7,286046997.0,N
1663414975.5,286046996.7,N
1663414995.4,286046997.7,N
1663415015.2,286046997.8,N
1663415035.1,286046997.1,N
1663415036.0,286046997.1,N
1663415055.8,286046995.0,Y
1663415075.6,286046997.0,P
1663415095.5,286046996.6,P
1663415115.3,286046997.4,P
1663415135.2,286046997.0,Y
1663415155.9,286047001.0,P
1663415175.7,286047001.1,N
1663415195.6,286047001.2,N
1663415215.4,286046999.4,N
1663415235.2,286046998.7,N
1663415255.1,286046999.3,N
1663415256.0,286046999.3,N
1663415275.8,286046998.8,N
1663415295.7,286046999.1,N
1663415315.5,286046996.5,N
1663415335.3,286046999.3,N
1663415355.2,286046998.8,N
1663415375.0,286046996.8,N
1663415375.9,286046996.8,N
1663415395.8,286046999.1,N
1663415415.6,286046996.8,N
1663415435.4,286046999.6,N
1663415455.3,286046999.6,N
1663415475.1,286046997.7,N
1663415495.9,286046997.1,N
1663415515.7,286046995.4,Y
1663415535.5,286046997.5,P
1663415555.4,286046997.5,P
1663415575.2,286046995.2,P
1663415595.0,286046997.9,N
1663415595.9,286046997.9,N
1663415615.8,286046997.1,N
1663415635.6,286046997.0,N
1663415655.5,286046996.7,Y
1663415675.3,286046998.2,P
1663415695.1,286046998.6,P
1663415715.9,286046998.6,N
1663415735.7,286047001.1,N
1663415755.7,286047000.8,N
1663415775.5,286046999.4,N
1663415795.3,286046998.3,N
1663415815.2,286047000.3,N
1663415835.0,286047000.4,N
1663415835.9,286047000.4,N
1663415855.8,286047001.0,N
1663415875.6,286046998.1,N
1663415895.4,286046998.9,N
1663415915.3,286046998.3,N
1663415935.1,286047000.7,N
1663415955.9,286047000.5,N
1663415975.7,286047002.5,N
1663415995.5,286047001.9,N
